Regional Weather Roundup
Issued by NWS Pendleton, OR

Home | Current Version | Previous Version | Text Only | Print | Product List | Glossary On
Versions: 1 2 3 4 5 6 7 8 9 10 11 12 13 14 15 16 17 18 19 20 21 22 23 24 25 26 27 28 29 30 31 32 33 34 35 36 37 38 39 40 41 42 43 44 45 46 47 48 49 50
000
ASUS46 KPDT 241025
RWRPDT
PENDLETON REGIONAL WEATHER ROUNDUP
NATIONAL WEATHER SERVICE PENDLETON OREGON
300 AM PDT SAT JUN 24 2017

NOTE: FAIR INDICATES FEW OR NO CLOUDS BELOW 12,000 FEET WITH NO
SIGNIFICANT WEATHER AND/OR OBSTRUCTIONS TO VISIBILITY.

# INDICATES UNOFFICIAL STATION AND DATA

WAZ520-241110-
EAST SLOPES OF WASHINGTON CASCADES

CITY            SKY/WX      TMP DP  RH  WIND    PRES   REMARKS
#BULLFROG       N/A         49  47  93  CALM    N/A
#CLE ELUM HS    N/A         50  43  77  CALM    30.14R
#CLE ELUM LAKE  N/A         60  43  53  CALM    30.19F
#EASTON DOT     N/A         53  47  80  CALM    N/A
#ELK HTS DOT    N/A         55  55  100 CALM    N/A
#GLENWOOD       N/A         45  43  93  CALM    30.12F
#NELSON 3SW     N/A         53  46  77  CALM    30.32S
#NILE           N/A         48  42  80  CALM    29.45R
#TEANAWAY 4NE   N/A         49  43  80  CALM    N/A
#TROUT LAKE 1NE N/A         52  43  71  CALM    30.11S
#TROUT LAKE 1E  N/A         43  41  93  CALM    30.20F
$$

WAZ521-241110-
SIMCOE HIGHLANDS

CITY            SKY/WX      TMP DP  RH  WIND    PRES   REMARKS
#SATUS PASS DOT N/A         54  32  43  N7      N/A
#CENTERVILLE 1SWN/A         46  36  68  CALM    30.07F
#GOLDENDALE 1NE N/A         52  27  38  N2      N/A
#GOLDENDALE 4W  N/A         50  14  23  CALM    30.19S
#GOODNOE HILLS  N/A         66  36  33  NW2     N/A
#LYLE 6NE       N/A         60  43  53  N5      30.04F
#PITT 4SE       N/A         57  40  53  NE1     30.11S
$$

WAZ026-241110-
KITTITAS VALLEY

CITY            SKY/WX      TMP DP  RH  WIND    PRES   REMARKS
ELLENSBURG AP   CLEAR       54  42  64  CALM    30.19S
#ELLENSBURG CWU N/A         57  46  67  CALM    30.06S
#ELLENSBURG 3NE N/A         53  43  69  CALM    28.25S
#KITTITAS 3S    N/A         46  42  86  CALM    30.12S
#MANASTASH RDG  N/A         60  60  100 CALM    N/A
#ROCKY CYN DOT  N/A         54  43  66  W5      N/A
#RYEGRASS DOT   N/A         62  34  35  W7      N/A
#THORP 6N       N/A         55  41  59  N3      30.14R
$$

WAZ027-241110-
YAKIMA VALLEY

CITY            SKY/WX      TMP DP  RH  WIND    PRES   REMARKS
SUNNYSIDE AP    CLEAR       49  45  86  N3      30.14S
YAKIMA AIRPORT  CLEAR       54  45  71  W8      30.16S
YAKIMA-VAGABOND CLEAR       55  38  53  CALM    30.15S
#DONALD 2NE     N/A         65   9  11  W1      28.99S
#GRANDVIEW      N/A         56  44  64  CALM    30.12S
#MABTON         N/A         53  43  69  CALM    30.13S
#MOXEE 2E       N/A         53  N/A N/A CALM    30.08R
#NACHES 2SW     N/A         62  45  54  W6      30.19S
#OUTLOOK DOT    N/A         57  48  72  CALM    30.10S
#PARKER DOT     N/A         68  41  37  SE9     30.12F
#TERRACE HTS    N/A         56  44  64  CALM    30.07F
#TOPPENISH      N/A         61  47  60  CALM    30.02S
#I82 S UMTANUM RN/A         62  38  41  N3      N/A
#UNION GAP DOT  N/A         55  45  69  NE2     30.17F
#W YAKIMA       N/A         64  44  48  N1      30.10S
#WHITE SWAN 5E  N/A         51  45  80  CALM    30.11S
#WILEY CITY 3W  N/A         58  37  45  CALM    30.14R
#ZILLAH DOT     N/A         57  50  77  W1      N/A
$$

WAZ028-241110-
LOWER COLUMBIA BASIN...WASHINGTON

CITY            SKY/WX      TMP DP  RH  WIND    PRES   REMARKS
PASCO           CLEAR       54  49  83  N3      30.13R
PROSSER AWOS    N/A         54  48  80  CALM    30.17R
RICHLAND AWOS   CLEAR       56  46  69  CALM    30.13R
#BENTON CITY    N/A         58  40  51  CALM    30.02R
#CONNELL 5N     N/A         54  42  64  N1      30.10S
#CONNELL 5NW    N/A         56  29  35  N2      30.06S
#ELTOPIA 6NW    N/A         57  46  67  CALM    29.10S
#KAHLOTUS       N/A         57  40  53  CALM    30.10S
#KENNEWICK 3S   N/A         62  43  50  CALM    30.10S
#PATERSON       N/A         61  47  60  CALM    30.09R
#PROSSER DOT    N/A         54  45  71  CALM    30.13S
#SAGEMOOR 2W    N/A         61  44  53  N1      29.96S
#TOUCHET 2S     N/A         45  41  86  CALM    30.09S
#WEST PASCO     N/A         60  47  62  CALM    30.11R
$$

WAZ029-241110-
FOOTHILLS OF THE BLUES...WASHINGTON

CITY            SKY/WX      TMP DP  RH  WIND    PRES   REMARKS
WALLA WALLA AP  CLEAR       60  42  51  E8      30.13S
#CLYDE 6NW      N/A         57  40  53  E1      30.09S
#DELANEY DOT    N/A         47  40  76  CALM    30.16S
#LOWDEN 2SE     N/A         51  46  83  CALM    30.09S
#PLEASANT VIEW 1N/A         62  40  44  N1      30.12S
#PRESCOTT       N/A         53  43  69  CALM    30.09S
#WHITMAN COLLEGEN/A         59  47  64  CALM    30.13S
#WAITSBURG 5S   N/A         56  41  57  NE2     30.18F
#WAITSBURG 6SSE N/A         50  41  71  E1      30.12S
#WAITSBURG 8N   N/A         53  N/A N/A NW2     30.12S
#WALLA WALLA 5E N/A         54  44  69  NE5     N/A
#WHITMAN MISSIONN/A         52  47  83  CALM    30.12S
$$

WAZ030-241110-
BLUE MOUNTAINS...WASHINGTON

CITY            SKY/WX      TMP DP  RH  WIND    PRES   REMARKS
#DIXIE 5SE      N/A         69  34  27  E8      30.12F
$$

ORZ009-041-WAZ024-241110-
COLUMBIA RIVER GORGE

CITY            SKY/WX      TMP DP  RH  WIND    PRES   REMARKS
HOOD RIVER AP   CLEAR       54  45  71  CALM    30.13S
THE DALLES AP   CLEAR       58  43  57  SE5     30.11S
#ARLINGTON AIRPON/A         65  38  37  W3      30.10S
#CELILO DOT     N/A         62  40  44  SE1     N/A
#LYLE           N/A         63  45  52  N7      30.11S
#MARYHILL       N/A         63  38  39  N2      N/A
#RUFUS DOT      N/A         63  N/A N/A S7      N/A
#SMITHVILLE     N/A         55  44  66  E1      30.06R

$$

ORZ510-241110-
NORTH CENTRAL OREGON

CITY            SKY/WX      TMP DP  RH  WIND    PRES   REMARKS
#ANTELOPE       N/A         53  37  54  N2      29.95S
#CHENOWITH 1W   N/A         51  35  54  NW14    N/A
#COW CYN RST AREN/A         59  34  39  NE3     N/A
#DUFUR          N/A         48  41  77  CALM    30.07F
#DUFUR 9E       N/A         69  36  30  E6      30.11F
#GRASS VALLEY 1SN/A         56  37  49  CALM    30.18F
#MAUPIN SCHOOL  N/A         59  39  47  CALM    30.18S
#MORO SCHOOL    N/A         50  40  68  CALM    30.24F
#SHANIKO 5WSW   N/A         61  31  32  N10     N/A
#SHANIKO 4NW    N/A         61  33  35  E10     30.22F
#TYGH VALLEY 2NEN/A         54  38  55  N2      30.10S
#WAPANITIA AIRPON/A         53  37  54  CALM    30.10F
#WASCO DOT      N/A         47  39  74  SE1     N/A
#WASCO 5NE      N/A         51  39  63  CALM    30.09S
$$

ORZ511-241110-
CENTRAL OREGON

CITY            SKY/WX      TMP DP  RH  WIND    PRES   REMARKS
BEND AIRPORT    CLEAR       N/A N/A N/A CALM    30.23S
MADRAS AIRPORT  CLEAR       50  32  50  SE6     30.20S
PRINEVILLE AP   CLEAR       46  32  58  S6      30.22S
REDMOND AIRPORT CLEAR       47  30  51  S5      30.20S
#ASHWOOD SCHOOL N/A         54  35  48  S5      30.14S
#BEND 1SW       N/A         45  34  65  SE1     N/A
#BEND-AWBREY    N/A         58  36  44  CALM    30.06F
#BEND-KIM LN    N/A         56  34  43  W7      30.02S
#CULVER         N/A         52  39  61  CALM    30.01S
#CULVER 8W      N/A         58  37  45  CALM    30.16F
#LAKE BILLY CHINN/A         59  N/A N/A W3      30.12S
#MADRAS 4S      N/A         49   9  19  CALM    30.26
#POWELL BUTTE   N/A         59  33  37  S2      30.15S
#PRINEVILLE     N/A         48  40  74  CALM    30.18R
#PRINEVILLE 3N  N/A         48  38  68  N1      30.08S
#WARM SPRINGS   N/A         60  39  46  CALM    29.96S

$$


ORZ509-241110-
EAST SLOPES OF OREGON CASCADES

CITY            SKY/WX      TMP DP  RH  WIND    PRES   REMARKS
SISTERS AWOS    N/A         45  36  70  CALM    30.18S
#BLUE BOX PASS  N/A         57  N/A N/A NE3     N/A
#CAMP SHERMAN   N/A         41  34  76  CALM    30.17F
#LA PINE 4NW    N/A         44  31  60  CALM    30.10S
#LAVA BUTTE DOT N/A         48  31  51  NE2     N/A
#SISTERS ODOT   N/A         33  23  66  CALM    N/A
#SISTERS 3N     N/A         42  27  55  CALM    30.20S
#SUNRIVER       N/A         49  35  58  CALM    30.08S
#TUMALO 3W      N/A         63  33  32  W5      29.93F
#WANOGA BUTTE D N/A         54  25  32  NE3     N/A

$$

ORZ044-241110-
LOWER COLUMBIA BASIN...OREGON

CITY            SKY/WX      TMP DP  RH  WIND    PRES   REMARKS
HERMISTON       CLEAR       54  45  71  E5      30.11S
#BOARDMAN SCHOOLN/A         52  44  74  CALM    30.11R
#ECHO 8SW       N/A         55  45  69  CALM    30.13R
#I-84 EX 198 DOTN/A         63  43  48  NE12    N/A
#IONE SCHOOL    N/A         57  39  51  CALM    30.10F
#UMATILLA       N/A         57  42  57  CALM    30.03R
$$

ORZ507-241110-
NORTHERN FOOTHILLS OF THE BLUES

CITY            SKY/WX      TMP DP  RH  WIND    PRES   REMARKS
PENDLETON AIRPT CLEAR       58  42  55  S10     30.14S
#ADAMS 3WNW     N/A         46  42  86  CALM    30.11S
#ATHENA         N/A         46  40  79  CALM    30.14S
#CAYUSE         N/A         61  42  50  E7      30.09S
#HELIX SCHOOL   N/A         49  41  74  CALM    30.10S
#HELIX 3N       N/A         55  39  55  E3      30.12S
#HOLDMAN 5SE    N/A         53  43  69  CALM    30.13S
#HOLDMAN 6E     N/A         57  43  59  CALM    29.90S
#M-F GROVE ELEM N/A         59  38  45  N1      30.10S
#M-FREEWATER 5SEN/A         59  41  51  CALM    30.13S
#PENDLETON DNTN N/A         53  37  54  CALM    30.13S
#PDT AQUATIC CTRN/A         53  38  57  CALM    30.14S
#PDT SUNRIDGE   N/A         52  44  74  CALM    30.16S
#PENDLETON 7NW  N/A         54  42  64  SE6     25.48
#PILOT ROCK 1S  N/A         60  35  39  SE7     30.16S
#PILOT ROCK     N/A         55  38  53  CALM    30.17S
#TUTUILLA       N/A         46  40  79  CALM    30.19F
#UMAPINE 2E     N/A         56  45  66  CALM    30.09S
#WESTON SCHOOL  N/A         62  33  34  N1      30.07S

$$

ORZ508-241110-
SOUTHERN FOOTHILLS OF THE BLUES

CITY            SKY/WX      TMP DP  RH  WIND    PRES   REMARKS
LEXINGTON       CLEAR       59  37  44  SE9     30.18S
#AJAX           N/A         62  31  31  CALM    30.30S
#CONDON 5W      N/A         62  38  41  CALM    30.19S
#HEPPNER EOC    N/A         57  41  55  SE7     30.03S
#HEPPNER 4NE    N/A         58  38  47  E3      30.09S
#LEXINGTON 2SE  N/A         62  41  46  SE7     30.11S
#MIKKALO        N/A         61  35  38  SE1     30.25F
#OLEX 4N        N/A         61  38  42  SW6     30.11S
#RUGGS 5NE      N/A         57  34  42  CALM    30.36F
#RUGGS 2SW      N/A         59  36  42  S7      30.11S

$$

ORZ502-503-241110-
BLUE MOUNTAINS

CITY            SKY/WX      TMP DP  RH  WIND    PRES   REMARKS
MEACHAM         CLEAR       40  35  82  CALM    30.25S
#BATTLE MTN DOT N/A         51  37  59  SE1     N/A
#CUTSFORTH PARK N/A          0  -78  1  CALM    30.02S
#GRANITE        N/A         38  30  73  CALM    30.19R
#GREENHORN 9SW  N/A         40  38  92  CALM    30.23F
#HARDMAN 10S    N/A         53  33  46  CALM    30.19F
#HEPPNER 15SE   N/A         47  37  68  CALM    30.13S
#LADD CYN SMT   N/A         49  35  58  SE1     N/A
#LADD CREEK ODOTN/A         51  37  59  SW3     N/A
#LONG CREEK HS  N/A         48  41  77  CALM    N/A
#N POWDER DOT   N/A         49  41  74  SW2     N/A
#PIKES PEAK     N/A         66  32  28  N3      27.99S
#SUMMERVILLE 5NWN/A         49  39  68  W2      30.20R
#TOLLGATE       N/A         53  32  45  N1      30.11F
#TROY SCHOOL    N/A         49  43  80  CALM    30.02S
#UKIAH          N/A         38  36  92  CALM    30.10R
#WESTON 4E      N/A         61  35  38  E3      30.05F
$$

ORZ505-241110-
JOHN DAY BASIN

CITY            SKY/WX      TMP DP  RH  WIND    PRES   REMARKS
JOHN DAY        CLEAR       55  39  55  CALM    30.23S
#JOHN DAY KJDY  N/A         50  N/A N/A CALM    30.08F
#DAYVILLE SCHOOLN/A         54  35  48  CALM    30.16R
#MITCHELL       N/A         52  39  61  CALM    30.35S
#MITCHELL 8NW   N/A         63  33  32  CALM    30.07F
#MONUMENT HS    N/A         51  39  63  CALM    30.14S
#MT. VERNON 5SE N/A         52  36  54  CALM    30.19S
#SPRAY SCHOOL   N/A         50  N/A N/A CALM    N/A
$$

ORZ506-241110-
OCHOCO AND JOHN DAY HIGHLANDS

CITY            SKY/WX      TMP DP  RH  WIND    PRES   REMARKS
#HORSE RIDGE DO N/A         39  26  59  CALM    N/A
#PAULINA ODOT   N/A         50  34  54  CALM    N/A
#PINE MTN OBS   N/A         56  32  40  CALM    N/A
#PRAIRIE CITY   N/A         45  40  82  CALM    30.36F
#SENECA         N/A         42  N/A N/A CALM    N/A
#SENECA 9NW     N/A         39  34  82  CALM    30.10S
$$

ORZ049-241110-
GRANDE RONDE VALLEY

CITY            SKY/WX      TMP DP  RH  WIND    PRES   REMARKS
LA GRANDE       CLEAR       52  36  54  CALM    30.20S
#COVE           N/A         49  42  77  NW2     30.21S
#COVE SCHOOL    N/A         47  39  74  CALM    30.20S
#COVE 6NW       N/A         47  39  74  CALM    30.13S
#ELGIN 3N       N/A         49  36  61  CALM    30.18S
#ELGIN 1E       N/A         48  39  71  CALM    N/A
#IMBLER SCHOOL  N/A         53  38  57  CALM    30.15F
#ISLAND CITY 4N N/A         61  52  72  CALM    30.03F
#LA GRANDE-LEFFEN/A         58  37  45  W1      30.18F
#UNION 1S       N/A         49  40  71  CALM    30.12S
$$

ORZ050-241110-
WALLOWA COUNTY

CITY            SKY/WX      TMP DP  RH  WIND    PRES   REMARKS
JOSEPH AIRPORT  CLEAR       52  32  46  S9      30.27F
#ENTERPRISE HS  N/A         43  38  82  CALM    30.03F
#IMNAHA SCHOOL  N/A         53  41  64  E1      30.20S
#IMNAHA 10S     N/A         51  39  63  SW3     30.21F
#JOSEPH         N/A         50  38  63  CALM    30.21F
#JOSEPH 3N      N/A         40  32  73  CALM    30.26F
#JOSEPH 3W      N/A         52  38  59  W3      30.09F
#LOSTINE        N/A         49  38  66  CALM    29.95F
#LOSTINE 3SE    N/A         45  37  73  S5      30.29F
#MT HOWARD 8000 N/A         44  28  53  SW2     30.41F
#PROMISE 1S     N/A         48  38  68  S1      30.23F
#WALLOWA LAKE   N/A         52  36  54  S2      30.29F
#WALLOWA SCHOOL N/A         42  38  86  CALM    30.19F



$$



USA.gov is the U.S. government's official web portal to all federal, state and local government web resources and services.